Bookmark and Share
Track history (hours):
 

Christina O

Operator: V Ships Leisure SAM

Last reported at 2014-Apr-17 11:31 UTC. Time now 2014-Apr-17 12:31 UTC.
Position N 34°39' E 033°01'.

Length 186 m; draft 6.2 m.

Type: Ship. MMSI: 308322000.

NotesDate/timePositionNaut miles runAvg speedWind from/ knotsBaromVisibWave heightAir tempDewpointWater temp
2014-Apr-17 11:31N 34°39' E 033°01'0 0.0
2014-Apr-17 10:31N 34°39' E 033°01'0 0.0
2014-Apr-17 09:31N 34°39' E 033°01'0 0.0
2014-Apr-17 08:31N 34°39' E 033°01'0 0.0
2014-Apr-17 07:31N 34°39' E 033°01'0 0.0
2014-Apr-17 06:31N 34°39' E 033°01'0 0.0
2014-Apr-17 05:34N 34°39' E 033°01'1 1.3
2014-Apr-17 04:34N 34°39' E 033°03'1110.7
2014-Apr-17 03:34N 34°30' E 033°08'1515.0
2014-Apr-17 02:33N 34°15' E 033°12'2015.2
2014-Apr-17 01:15N 33°56' E 033°18'1115.4
2014-Apr-17 00:33N 33°45' E 033°21'1615.8
2014-Apr-16 23:33N 33°30' E 033°26'1616.0
2014-Apr-16 22:33N 33°15' E 033°31'3216.0
2014-Apr-16 20:33N 32°44' E 033°44'1616.4
2014-Apr-16 19:33N 32°29' E 033°50'1616.0
2014-Apr-16 18:33N 32°14' E 033°57'1515.0
2014-Apr-16 17:33N 32°02' E 034°08'1616.5
2014-Apr-16 16:33N 31°55' E 034°25'26 1.6
2014-Apr-16 00:25N 32°19' E 034°38'1011.5
2014-Apr-15 23:33N 32°29' E 034°42'1211.7
2014-Apr-15 22:33N 32°40' E 034°45'1211.7
2014-Apr-15 21:33N 32°51' E 034°50'9 1.3
2014-Apr-15 14:32N 32°49' E 035°00'0 0.0
2014-Apr-15 07:32N 32°49' E 035°00'0 0.0
2014-Apr-15 06:32N 32°49' E 035°00'0 0.0
2014-Apr-15 05:32N 32°49' E 035°00'0 0.0
2014-Apr-15 03:32N 32°49' E 035°00'11 5.5
2014-Apr-15 01:33N 32°54' E 034°49'1515.4
2014-Apr-15 00:34N 32°57' E 034°31'1716.6
2014-Apr-14 23:33N 32°58' E 034°11'1616.4
2014-Apr-14 22:34N 32°53' E 033°53'1717.1
2014-Apr-14 21:32N 32°40' E 033°39'1717.0
2014-Apr-14 20:34N 32°27' E 033°26'1717.2
2014-Apr-14 19:33N 32°14' E 033°13'1716.9
2014-Apr-14 18:34N 32°01' E 032°60'  

Dump ship's entire track history

sailing weather and tide predictions

Christina O — C6FN7 — position and weather